Other Public Products
Issued by NWS Grand Forks, ND

Home | Current Version | Previous Version | Graphics & Text | Print | Product List | Glossary On
Versions: 1 2 3 4 5 6 7 8 9 10 11 12 13 14 15 16 17 18 19 20 21 22 23 24 25 26 27 28 29 30 31 32 33 34 35 36 37 38 39 40 41 42 43 44 45 46 47 48 49 50
000
FPUS83 KFGF 270331
OPUFGF
PRAIRIE TO PINES WEATHER ROUNDUP
NATIONAL WEATHER SERVICE EASTERN NORTH DAKOTA/GRAND FORKS ND
1000 PM CDT THU APR 26 2018

 **SATELLITE DATA USED TO AUGMENT SKY COVER AT AUTOMATED STATIONS**
 *****  WEATHER ACROSS EASTERN NORTH DAKOTA  *****

CITY           SKY/WX    TMP DP  RH WIND       PRES   REMARKS
GRAND FORKS    MOCLDY    49  39  68 S13       29.79F
GRND FORKS AFB MOCLDY    54  32  44 SW12      29.79F
GRND FORKS NWS   N/A     51  38  62 S18       29.77F
BUXTON           N/A     51  41  68 S14         N/A
DEVILS LAKE    CLOUDY    52  33  48 W10       29.82F
FARGO          FAIR      49  31  49 S10       29.88F
WAHPETON ARPT  FAIR      45  32  61 S9        29.93F
$$

 *****  WEATHER ACROSS CENTRAL AND WESTERN NORTH DAKOTA  *****

CITY           SKY/WX    TMP DP  RH WIND       PRES   REMARKS
JAMESTOWN      CLOUDY    56  29  35 SW10      29.88F
BISMARCK       FAIR      56  30  37 W7        29.95S
MINOT          FAIR      61  29  29 W15       29.87S
MINOT AFB      FAIR      53  31  44 W10       29.86R
GARRISON         N/A     52  30  43 W12       29.91S
WILLISTON      FAIR      58  32  37 W10       29.94S
DICKINSON      FAIR      46  27  47 W8        29.99R
HETTINGER      FAIR      44  32  62 W10       30.05R
$$

 *****  OTHER OBSERVATIONS NORTHEAST NORTH DAKOTA  *****

CITY           SKY/WX    TMP DP  RH WIND       PRES   REMARKS
WALHALLA       FAIR      57  30  35 W7        29.76F
LANGDON        MOCLDY    52  32  46 W9        29.80S
CAVALIER         N/A     54  34  47 SW9       29.76S
GRAFTON        FAIR      52  32  46 S7        29.79F
CANDO          FAIR      50  28  43 NW10      29.84R
FORT TOTTEN      N/A     57  28  32 W5        29.95S
ROLLA          FAIR      46  32  57 NW8       29.84R
RUGBY          FAIR      46  30  53 W12       29.84R
 ***** THE ABOVE OBSERVATIONS ARE NON NWS ARE NOT QUALITY
        CONTROLLED AND MAY MIS-REPORT RAIN FOR SNOW...
$$

 *****  OTHER OBSERVATIONS SOUTHEAST NORTH DAKOTA *****

CITY           SKY/WX    TMP DP  RH WIND       PRES   REMARKS
COOPERSTOWN    FAIR      50  37  62 SW14      29.83F
VALLEY CITY    CLOUDY    48  36  61 SW10      29.89F
OAKES            N/A     48  36  61 SW10      29.93F
GWINNER          N/A     46  36  66 S8        29.92F
SHEYENNE NWR     N/A     51  35  55 S8        29.95S
BUFFALO          N/A     50  33  52 NE14        N/A
WYNDMERE       NOT AVBL
 ***** THE ABOVE OBSERVATIONS ARE NON NWS ARE NOT QUALITY
       CONTROLLED AND MAY MIS-REPORT RAIN FOR SNOW...
$$

  *****  WEATHER ACROSS NORTHERN MINNESOTA  *****

CITY           SKY/WX    TMP DP  RH WIND       PRES   REMARKS
FLAG ISLAND    LGT RAIN  46  27  46 CALM      29.83F
WARROAD        FAIR      46  32  57 CALM      29.84R
ROSEAU         FAIR      48  36  61 SW6       29.84R
HALLOCK        MOCLDY    55  30  38 SE9       29.79R
THF RVR FALLS  MOCLDY    47  33  58 S12       29.84F
HALSTAD        NOT AVBL
FOSSTON        FAIR      45  28  53 S8        29.86F
BAUDETTE       MOCLDY    44  25  47 SE6       29.83F
WASKISH        FAIR      37  27  65 S3        29.85F
CROOKSTON      MOCLDY    52  34  50 S14       29.83F
$$
  *****  WEATHER ACROSS CENTRAL AND WEST MINNESOTA  *****

CITY           SKY/WX    TMP DP  RH WIND       PRES   REMARKS
BEMIDJI        FAIR      41  24  52 S3        29.87F
PARK RAPIDS    FAIR      43  27  53 S5        29.91F
WADENA         FAIR      39  28  65 S5        29.93F
DETROIT LAKES  FAIR      45  32  61 CALM      29.91F
MOORHEAD       FAIR      48  32  53 S10       29.89F
FERGUS FALLS   FAIR      43  30  61 S6        29.91F
ELBOW LAKE     FAIR      40  32  71 E7        29.95F
MORRIS MN      FAIR      43  36  75 S6        29.96F
STAPLES        FAIR      39  23  52 CALM      29.94F
WHEATON        MOCLDY    46  34  61 S7        29.98S
$$
  *****  WEATHER ELSEWHERE ACROSS MINNESOTA  *****

CITY           SKY/WX    TMP DP  RH WIND       PRES   REMARKS
DULUTH         FAIR      45  20  36 N3        29.90R
INTRNTL FALLS  FAIR      39  24  55 SE3       29.87F
ELY            FAIR      32  21  64 CALM      29.88F
CLOQUET        FAIR      37  16  41 W6        29.91R
BRAINERD       FAIR      48  21  34 W7        29.94S
HIBBING        FAIR      31  20  63 CALM      29.89S
ALEXANDRIA     FAIR      45  28  51 S3        29.97F
SAINT CLOUD    FAIR      45  27  49 NW8       29.95R
MINNEAPOLIS    FAIR      52  25  35 N8        29.93R
$$

  *****  WEATHER ACROSS SOUTH DAKOTA  *****

CITY           SKY/WX    TMP DP  RH WIND       PRES   REMARKS
SIOUX FALLS    FAIR      45  31  58 CALM      30.03S
BROOKINGS      FAIR      45  34  65 CALM      30.02S
WATERTOWN      FAIR      43  30  60 SW6       30.00S
HURON          FAIR      50  34  54 W5        30.01S
SISSETON         N/A     44  34  67 S8        29.96F
ABERDEEN       FAIR      43  28  55 S7        29.98S
MITCHELL       FAIR      53  33  46 W5        30.04R
PIERRE         FAIR      54  27  35 SW7       30.03S
MOBRIDGE       FAIR      46  33  60 CALM      29.97S
RAPID CITY     FAIR      44  31  60 CALM      30.11R
$$

  *****  SOME WEATHER IN NEARBY STATES *****

CITY           SKY/WX    TMP DP  RH WIND       PRES   REMARKS
GLASGOW MT     FAIR      60  32  34 W7        30.00R
GREAT FALLS MT FAIR      59  29  31 SE5       30.07S
CHEYENNE WY    FAIR      48  27  44 CALM      30.26R
SCOTTSBLUFF NE FAIR      50  30  46 W3        30.18R
OMAHA NE       FAIR      50  29  44 N8        30.05R
DES MOINES IA  FAIR      55  32  41 NW10      29.98R
DAVENPORT IA   FAIR      58  30  34 NW13      29.85R
CHICAGO IL     MOCLDY    55  29  36 S6        29.82S
EAU CLAIRE WI  FAIR      48  35  60 NE6       29.88R
LA CROSSE WI   FAIR      56  34  43 NW10      29.84R
$$

  *****  SOME NATIONAL WEATHER *****

CITY           SKY/WX    TMP DP  RH WIND       PRES   REMARKS
LA GUARDIA NY  FAIR      60  41  49 NE6       29.86S
RALEIGH NC     MOCLDY    61  61 100 CALM      29.81S THUNDER
ATLANTA GA     FAIR      55  55 100 SW5       29.84F
NEW ORLEANS LA FAIR      65  53  65 N10       29.95R
OKLAHOMA CITY  MOCLDY    60  44  55 N8        30.04R
ALBUQUERQUE NM FAIR      65  24  21 E31G40    30.11R
SALT LAKE CITY FAIR      62  37  39 W7        30.05R
LOS ANGELES CA MOCLDY    58  52  80 W13       29.99R
BOISE ID       FAIR      71  41  33 S5        29.96S
SEATTLE WA     FAIR      72  44  36 N9        29.86S
$$

*** WEATHER ACROSS MANITOBA...SASKATCHEWAN AND ONTARIO ***
                ***ONTARIO***

CITY           SKY/WX    TMP DP  RH WIND       PRES   REMARKS
GERALDTON      CLOUDY    30  23  74 N10       29.91R WCI  21
THUNDER BAY    PTCLDY    36  28  75 CALM      29.91R
SIOUX LOOKOUT  CLOUDY    36  23  60 E3        29.87F
TORONTO        PTCLDY    46  34  61 VRB2      29.86S
BIG TROUT LK   CLEAR     25  16  68 E5        29.93S WCI  19
PICKLE LAKE    NOT AVBL
DRYDEN         LGT RAIN  41  28  60 S7        29.87S
KENORA         MOCLDY    45  16  31 S8        29.81F
$$
                *** MANITOBA***

CITY           SKY/WX    TMP DP  RH WIND       PRES   REMARKS
BRANDON        PTCLDY    48  34  57 NW12      29.81R
DAUPHIN        PTCLDY    52  28  40 N25G32    29.86R
ISLAND LAKE    CLOUDY    36  21  55 N5        29.89R
PILOT MOUND      N/A     50  27  40 W7          N/A
THE PAS        CLOUDY    41  30  65 N15       29.94R
THOMPSON       FLURRIES  30  28  93 NE5       29.97R
WINNIPEG       MOCLDY    54  34  47 CALM      29.76S
LYNN LAKE      CLOUDY    32  30  93 N2        30.02R
CHURCHILL      PTCLDY    14  10  85 N9        30.12R WCI   2
GILLAM         CLOUDY    28  14  54 E5        29.99R WCI  23
$$
                ***SASKATCHEWAN***

CITY           SKY/WX    TMP DP  RH WIND       PRES   REMARKS
ESTEVAN        PTCLDY    52  30  43 NW10      29.92R
KINDERSLEY     PTCLDY    54  34  47 N13       30.05R
LLOYDMINSTER   PTCLDY    52  25  35 N6        30.07R
PRINCE ALBERT  PTCLDY    50  21  32 N6        30.04R
REGINA         PTCLDY    55  27  33 N12G18    29.98R
YORKTON        CLEAR     52  23  32 NW10G18   29.92R


USA.gov is the U.S. government's official web portal to all federal, state and local government web resources and services.